Weather History for Bennington, VT

Change the Weather History Date:

Wednesday, November 21, 2012

  Actual Average Record
Temperature  
Mean Temperature 39 °F 37 °F  
Max Temperature 52 °F 45 °F 57 °F (2005)
Min Temperature 26 °F 29 °F 17 °F (2008)
Degree Days  
Heating Degree Days 26 28  
Month to date heating degree days 568 525  
Since 1 July heating degree days 1178 1346  
Moisture  
Dew Point 24 °F    
Average Humidity 61    
Maximum Humidity 92    
Minimum Humidity 30    
Precipitation  
Precipitation 0.00 in 0.10 in 0.11 in (2004)
Month to date precipitation 0.78 2.16  
Year to date precipitation 29.64 36.96  
Sea Level Pressure  
Sea Level Pressure 30.22 in    
Wind  
Wind Speed 1 mph (SSW)    
Max Wind Speed 8 mph    
Max Gust Speed 10 mph    
Visibility 10 miles    
Events      
T = Trace of Precipitation, MM = Missing Value Source: NWS Daily Summary

Daily Weather History Graph

Daily Weather History Graph

Search for Another Location

Airport:

Trip Planner

Search our weather history database for the weather conditions in past years. The results will help you decide how hot, cold, wet, or windy it might be!

Date:

Astronomy

Nov. 21, 2012 Rise Set
Actual Time 6:53 AM EST 4:24 PM EST
Civil Twilight 6:22 AM EST 4:55 PM EST
Nautical Twilight 5:47 AM EST 5:30 PM EST
Astronomical Twilight 5:13 AM EST 6:03 PM EST
Moon 12:48 PM EST (11/21) 12:00 AM EST (11/21)
Length of Visible Light 10h 33m
Length of Day
9h 31m
First Quarter, 61% of the Moon is Illuminated
Nov 21
First Quarter
Nov 28
Full
Dec 6
Last Quarter
Dec 13
New
Dec 20
First Quarter

Hourly Weather History & Observations

Time (EST) Temp. Windchill Dew Point Humidity Pressure Visibility Wind Dir Wind Speed Gust Speed Precip Events Conditions
12:54 AM 30.0 °F - 26.1 °F 85% 30.17 in 9.0 mi Calm Calm - N/A   Clear
1:54 AM 30.0 °F 26.5 °F 25.0 °F 82% 30.17 in 10.0 mi SE 3.5 mph - N/A   Clear
2:54 AM 28.9 °F - 25.0 °F 85% 30.18 in 9.0 mi Calm Calm - N/A   Clear
3:54 AM 28.9 °F - 25.0 °F 85% 30.19 in 10.0 mi Calm Calm - N/A   Clear
4:54 AM 28.0 °F - 24.1 °F 85% 30.20 in 10.0 mi Calm Calm - N/A   Clear
5:54 AM 27.0 °F - 24.1 °F 89% 30.21 in 9.0 mi Calm Calm - N/A   Clear
7:54 AM 30.0 °F - 25.0 °F 82% 30.26 in 9.0 mi Calm Calm - N/A   Clear
8:54 AM 32.0 °F - 27.0 °F 82% 30.27 in 8.0 mi Calm Calm - N/A   Clear
9:54 AM 37.9 °F - 26.1 °F 62% 30.26 in 10.0 mi Calm Calm - N/A   Partly Cloudy
10:54 AM 43.0 °F - 21.9 °F 43% 30.23 in 10.0 mi Calm Calm - N/A   Clear
11:54 AM 48.0 °F - 23.0 °F 37% 30.21 in 10.0 mi Calm Calm - N/A   Clear
12:54 PM 51.1 °F - 23.0 °F 33% 30.20 in 10.0 mi Calm Calm - N/A   Clear
1:54 PM 52.0 °F - 21.9 °F 31% 30.19 in 10.0 mi WNW 3.5 mph - N/A   Clear
2:54 PM 51.1 °F - 21.0 °F 31% 30.20 in 10.0 mi WNW 3.5 mph - N/A   Clear
3:54 PM 48.0 °F - 21.0 °F 34% 30.21 in 10.0 mi WNW 3.5 mph - N/A   Clear
4:54 PM 42.1 °F 39.2 °F 23.0 °F 47% 30.22 in 10.0 mi SSW 4.6 mph - N/A   Clear
5:54 PM 33.1 °F 30.0 °F 25.0 °F 72% 30.24 in 10.0 mi SSE 3.5 mph - N/A   Clear
6:54 PM 37.0 °F 34.5 °F 25.0 °F 62% 30.25 in 10.0 mi South 3.5 mph - N/A   Clear
7:54 PM 33.1 °F - 25.0 °F 72% 30.26 in 10.0 mi Calm Calm - N/A   Clear
8:54 PM 33.1 °F 27.7 °F 24.1 °F 70% 30.26 in 10.0 mi SE 5.8 mph - N/A   Clear
9:54 PM 30.9 °F - 23.0 °F 72% 30.25 in 10.0 mi Calm Calm - N/A   Clear
10:54 PM 33.1 °F - 23.0 °F 66% 30.25 in 10.0 mi Calm Calm - N/A   Clear
11:54 PM 30.0 °F - 23.0 °F 75% 30.26 in 10.0 mi Calm Calm - N/A   Clear